Hourly Weather Barsove

Today, 18 April, Sunday

Time Temperature Precipitation Wind Pressure Humidity
00:00 +5°C° 0 mm 3 mps 763 mmHg 75%
01:00 +5°C° 0 mm 3 mps 762 mmHg 76%
02:00 +5°C° 0 mm 3 mps 762 mmHg 76%
03:00 +7°C° 0.3 mm 3 mps 762 mmHg 79%
04:00 +7°C° 0.3 mm 2 mps 762 mmHg 83%
05:00 +7°C° 0.3 mm 2 mps 762 mmHg 86%
06:00 +8°C° 0.3 mm 3 mps 762 mmHg 84%
07:00 +8°C° 0.3 mm 3 mps 762 mmHg 82%
08:00 +9°C° 0 mm 3 mps 762 mmHg 78%
09:00 +10°C° 0 mm 4 mps 762 mmHg 77%
10:00 +11°C° 0 mm 4 mps 762 mmHg 76%
11:00 +12°C° 0 mm 4 mps 761 mmHg 75%
12:00 +12°C° 0 mm 4 mps 761 mmHg 74%
13:00 +13°C° 0 mm 4 mps 761 mmHg 73%
14:00 +13°C° 0 mm 4 mps 761 mmHg 72%
15:00 +12°C° 0 mm 4 mps 761 mmHg 77%
16:00 +11°C° 0 mm 4 mps 761 mmHg 81%
17:00 +10°C° 0 mm 4 mps 761 mmHg 86%
18:00 +10°C° 0 mm 3 mps 761 mmHg 88%
19:00 +10°C° 0 mm 3 mps 761 mmHg 90%
20:00 +9°C° 0 mm 3 mps 761 mmHg 92%
21:00 +9°C° 0 mm 3 mps 761 mmHg 92%
22:00 +9°C° 0 mm 3 mps 761 mmHg 93%
23:00 +9°C° 0 mm 2 mps 761 mmHg 93%

Tomorrow, 19 April, Monday

Time Temperature Precipitation Wind Pressure Humidity
00:00 +9°C° 0.1 mm 2 mps 761 mmHg 94%
01:00 +9°C° 0.1 mm 2 mps 761 mmHg 94%
02:00 +10°C° 0.1 mm 2 mps 761 mmHg 94%
03:00 +9°C° 0 mm 2 mps 760 mmHg 94%
04:00 +9°C° 0 mm 2 mps 760 mmHg 94%
05:00 +9°C° 0 mm 3 mps 760 mmHg 95%
06:00 +10°C° 0 mm 3 mps 760 mmHg 94%
07:00 +10°C° 0 mm 3 mps 760 mmHg 93%
08:00 +10°C° 0 mm 3 mps 760 mmHg 92%
09:00 +10°C° 0 mm 3 mps 760 mmHg 90%
10:00 +11°C° 0 mm 3 mps 760 mmHg 88%
11:00 +11°C° 0 mm 4 mps 760 mmHg 86%
12:00 +12°C° 0 mm 4 mps 760 mmHg 83%
13:00 +12°C° 0 mm 4 mps 759 mmHg 81%
14:00 +13°C° 0 mm 4 mps 759 mmHg 79%
15:00 +12°C° 0 mm 4 mps 759 mmHg 81%
16:00 +12°C° 0 mm 4 mps 759 mmHg 84%
17:00 +11°C° 0 mm 4 mps 759 mmHg 86%
18:00 +11°C° 0.2 mm 4 mps 758 mmHg 90%
19:00 +10°C° 0.2 mm 4 mps 758 mmHg 93%
20:00 +10°C° 0.2 mm 4 mps 757 mmHg 96%
21:00 +10°C° 0.4 mm 4 mps 757 mmHg 97%
22:00 +10°C° 0.4 mm 4 mps 756 mmHg 97%
23:00 +9°C° 0.4 mm 5 mps 755 mmHg 98%

Day after tomorrow, 20 April, Tuesday

Time Temperature Precipitation Wind Pressure Humidity
00:00 +10°C° 1.6 mm 4 mps 754 mmHg 98%
01:00 +11°C° 1.6 mm 4 mps 754 mmHg 98%
02:00 +11°C° 1.6 mm 3 mps 753 mmHg 98%
03:00 +11°C° 2 mm 3 mps 752 mmHg 98%
04:00 +11°C° 2 mm 3 mps 752 mmHg 97%
05:00 +11°C° 2 mm 3 mps 751 mmHg 97%
06:00 +12°C° 0.6 mm 3 mps 751 mmHg 93%
07:00 +12°C° 0.6 mm 4 mps 750 mmHg 90%
08:00 +13°C° 0.6 mm 4 mps 750 mmHg 86%
09:00 +14°C° 0 mm 5 mps 750 mmHg 78%
10:00 +15°C° 0 mm 7 mps 750 mmHg 70%
11:00 +16°C° 0 mm 8 mps 749 mmHg 63%
12:00 +16°C° 0 mm 8 mps 749 mmHg 60%
13:00 +16°C° 0 mm 9 mps 749 mmHg 58%
14:00 +16°C° 0 mm 10 mps 749 mmHg 56%
15:00 +13°C° 0 mm 10 mps 749 mmHg 64%
16:00 +11°C° 0 mm 11 mps 749 mmHg 72%
17:00 +9°C° 0 mm 12 mps 749 mmHg 80%
18:00 +8°C° 0.1 mm 11 mps 750 mmHg 82%
19:00 +8°C° 0.1 mm 11 mps 751 mmHg 83%
20:00 +8°C° 0.1 mm 11 mps 752 mmHg 85%
21:00 +8°C° 0.1 mm 10 mps 754 mmHg 84%
22:00 +8°C° 0.1 mm 9 mps 755 mmHg 83%
23:00 +8°C° 0.1 mm 9 mps 756 mmHg 82%

21 April, Wednesday

Time Temperature Precipitation Wind Pressure Humidity
00:00 +9°C° 0 mm 8 mps 757 mmHg 78%
01:00 +9°C° 0 mm 8 mps 758 mmHg 75%
02:00 +9°C° 0 mm 7 mps 758 mmHg 71%
03:00 +9°C° 0 mm 6 mps 759 mmHg 74%
04:00 +8°C° 0 mm 6 mps 759 mmHg 77%
05:00 +8°C° 0 mm 5 mps 760 mmHg 80%
06:00 +9°C° 0 mm 5 mps 760 mmHg 74%
07:00 +11°C° 0 mm 4 mps 761 mmHg 69%
08:00 +12°C° 0 mm 4 mps 761 mmHg 63%
09:00 +13°C° 0 mm 4 mps 761 mmHg 59%
10:00 +14°C° 0 mm 3 mps 762 mmHg 55%
11:00 +16°C° 0 mm 3 mps 762 mmHg 50%
12:00 +17°C° 0.2 mm 3 mps 762 mmHg 50%
13:00 +17°C° 0.2 mm 3 mps 762 mmHg 50%
14:00 +17°C° 0.2 mm 3 mps 762 mmHg 50%
15:00 +16°C° 0.1 mm 3 mps 762 mmHg 53%
16:00 +16°C° 0.1 mm 3 mps 762 mmHg 56%
17:00 +14°C° 0.1 mm 3 mps 763 mmHg 59%
18:00 +13°C° 0 mm 3 mps 763 mmHg 65%
19:00 +13°C° 0 mm 2 mps 763 mmHg 71%
20:00 +10°C° 0 mm 2 mps 764 mmHg 76%
21:00 +10°C° 0 mm 2 mps 764 mmHg 79%
22:00 +10°C° 0 mm 2 mps 764 mmHg 81%
23:00 +9°C° 0 mm 2 mps 764 mmHg 84%

22 April, Thursday

Time Temperature Precipitation Wind Pressure Humidity
00:00 +9°C° 0 mm 2 mps 764 mmHg 85%
01:00 +9°C° 0 mm 2 mps 764 mmHg 86%
02:00 +9°C° 0 mm 2 mps 764 mmHg 86%
03:00 +9°C° 0 mm 2 mps 764 mmHg 87%
04:00 +8°C° 0 mm 2 mps 764 mmHg 87%
05:00 +9°C° 0 mm 1 mps 764 mmHg 87%
06:00 +11°C° 0 mm 1 mps 765 mmHg 81%
07:00 +12°C° 0 mm 1 mps 765 mmHg 75%
08:00 +14°C° 0 mm 1 mps 765 mmHg 69%
09:00 +14°C° 0.1 mm 1 mps 765 mmHg 65%
10:00 +15°C° 0.1 mm 2 mps 765 mmHg 62%
11:00 +16°C° 0.1 mm 2 mps 765 mmHg 59%
12:00 +16°C° 0.4 mm 2 mps 765 mmHg 59%
13:00 +16°C° 0.4 mm 2 mps 765 mmHg 59%
14:00 +16°C° 0.4 mm 2 mps 764 mmHg 59%
15:00 +16°C° 0.4 mm 2 mps 764 mmHg 60%
16:00 +16°C° 0.4 mm 2 mps 764 mmHg 62%
17:00 +16°C° 0.4 mm 2 mps 764 mmHg 63%
18:00 +14°C° 0 mm 2 mps 765 mmHg 70%
19:00 +12°C° 0 mm 3 mps 765 mmHg 76%
20:00 +10°C° 0 mm 3 mps 765 mmHg 83%
21:00 +10°C° 0 mm 3 mps 765 mmHg 84%
22:00 +9°C° 0 mm 3 mps 765 mmHg 85%
23:00 +9°C° 0 mm 3 mps 765 mmHg 86%

23 April, Friday

Time Temperature Precipitation Wind Pressure Humidity
00:00 +9°C° 0 mm 2 mps 765 mmHg 86%
01:00 +8°C° 0 mm 2 mps 765 mmHg 86%
02:00 +8°C° 0 mm 2 mps 764 mmHg 86%
03:00 +8°C° 0 mm 2 mps 764 mmHg 85%
04:00 +8°C° 0 mm 2 mps 764 mmHg 84%
05:00 +8°C° 0 mm 2 mps 764 mmHg 83%
06:00 +10°C° 0 mm 2 mps 764 mmHg 76%
07:00 +13°C° 0 mm 2 mps 764 mmHg 68%
08:00 +15°C° 0 mm 2 mps 764 mmHg 61%
09:00 +16°C° 0 mm 2 mps 764 mmHg 56%
10:00 +17°C° 0 mm 3 mps 764 mmHg 51%
11:00 +19°C° 0 mm 3 mps 764 mmHg 47%
12:00 +19°C° 0 mm 4 mps 763 mmHg 47%
13:00 +19°C° 0 mm 5 mps 763 mmHg 48%
14:00 +19°C° 0 mm 5 mps 763 mmHg 49%
15:00 +17°C° 0 mm 5 mps 762 mmHg 51%
16:00 +17°C° 0 mm 5 mps 762 mmHg 54%
17:00 +16°C° 0 mm 5 mps 762 mmHg 57%
18:00 +14°C° 0 mm 4 mps 762 mmHg 62%
19:00 +13°C° 0 mm 4 mps 762 mmHg 66%
20:00 +11°C° 0 mm 3 mps 762 mmHg 71%
21:00 +10°C° 0 mm 3 mps 762 mmHg 72%
22:00 +10°C° 0 mm 4 mps 762 mmHg 74%
23:00 +10°C° 0 mm 4 mps 762 mmHg 75%
Show more